Flag Weather past 2 weeks in Thiruvananthapuram, Kerala, India

Now
84 °F

Broken clouds.


Feels Like: 94 °F
Forecast: 76 / 83 °F
Wind: 3 mph from Southwest

Location: Thiruvananthapuram

Current Time: Nov 26, 2014 at 12:29:04 PM

Latest Report: Nov 26, 2014 at 11:40 AM


Visibility: 2 mi

Pressure: 29.74 "Hg

Humidity: 79%

Dew point: 77 °F

Location of ThiruvananthapuramLocation

Historic Weather in Thiruvananthapuram — Graph

°F

Thiruvananthapuram temperature yesterday

Maximum temperature yesterday: 86 °F (at 10:40 AM)
Minimum temperature yesterday: 77 °F (at 2:40 AM)
Average temperature yesterday: 81 °F

Past Weeks' High & Low Weather Summary

 TemperatureHumidityPressure
High90 °F (Nov 13, 12:40 PM)94% (Nov 13, 5:40 AM)29.92 "Hg (Nov 13, 5:40 AM)
Low77 °F (Nov 12, 5:10 AM)55% (Nov 25, 1:40 PM)29.68 "Hg (Nov 12, 3:40 PM)
Average82 °F80%29.80 "Hg
* Reported Nov 11 11:10 AM — Nov 26 11:10 AM, Thiruvananthapuram, Weather by CustomWeather, © 2014

Note: Actual official high and low records may vary slightly from our data, if they occured in-between our weather recording intervals... More about our weather records

Advertising

Thiruvananthapuram weather history for previous 24 hours

 ConditionsComfort  
Time TempWeatherWind HumidityBarometerVisibility
11:10 AM
Nov 26
84 °FBroken clouds.5 mph74%29.77 "Hg2 mi
10:40 AM84 °FBroken clouds.5 mph74%29.77 "Hg2 mi
10:10 AM84 °FBroken clouds.5 mph74%29.77 "Hg2 mi
9:10 AM81 °FBroken clouds.No wind79%29.77 "Hg1 mi
8:40 AM81 °FBroken clouds.No wind79%29.77 "Hg1 mi
8:10 AM79 °FBroken clouds.No wind84%29.77 "Hg1 mi
7:40 AM77 °FBroken clouds.No wind83%29.77 "Hg1 mi
7:10 AM77 °FBroken clouds.No wind83%29.77 "Hg1 mi
6:40 AM77 °FPassing clouds.No wind83%29.74 "Hg1 mi
6:10 AM77 °FPassing clouds.No wind83%29.74 "Hg2 mi
5:40 AM77 °FPassing clouds.No wind83%29.74 "Hg2 mi
4:40 AM77 °FPassing clouds.No wind79%29.71 "Hg2 mi
4:10 AM77 °FPassing clouds.No wind79%29.71 "Hg2 mi
3:40 AM77 °FPassing clouds.No wind79%29.71 "Hg2 mi
3:10 AM77 °FPassing clouds.No wind79%29.71 "Hg2 mi
2:40 AM77 °FPassing clouds.No wind79%29.71 "Hg2 mi
2:10 AM79 °FPassing clouds.No wind79%29.71 "Hg2 mi
1:40 AM79 °FPassing clouds.No wind74%29.74 "Hg2 mi
1:10 AM79 °FPassing clouds.No wind79%29.77 "Hg2 mi
12:40 AM79 °FPartly cloudy.No wind79%29.77 "Hg2 mi
12:10 AM79 °FPartly cloudy.No wind79%29.77 "Hg2 mi
11:40 PM
Nov 25
79 °FPartly cloudy.No wind79%29.77 "Hg2 mi
11:10 PM79 °FPartly cloudy.No wind74%29.80 "Hg2 mi
10:40 PM79 °FPartly cloudy.No wind74%29.80 "Hg2 mi
10:10 PM79 °FPartly cloudy.No wind74%29.83 "Hg2 mi
9:40 PM79 °FPartly cloudy.No wind74%29.83 "Hg2 mi
8:40 PM79 °FPartly cloudy.No wind74%29.83 "Hg2 mi
8:10 PM79 °FPartly cloudy.No wind70%29.80 "Hg2 mi
7:40 PM81 °FPartly cloudy.No wind66%29.80 "Hg2 mi
6:40 PM81 °FPartly cloudy.No wind66%29.77 "Hg2 mi
5:40 PM82 °FBroken clouds.3 mph62%29.77 "Hg2 mi
5:10 PM82 °FDrizzle. Broken clouds.3 mph66%29.74 "Hg2 mi
4:40 PM84 °FBroken clouds.3 mph62%29.74 "Hg2 mi
2:40 PM84 °FBroken clouds.5 mph58%29.74 "Hg2 mi
2:10 PM84 °FBroken clouds.5 mph58%29.77 "Hg2 mi
1:40 PM86 °FBroken clouds.6 mph55%29.77 "Hg2 mi
1:10 PM86 °FBroken clouds.5 mph59%29.80 "Hg2 mi
12:40 PM86 °FBroken clouds.3 mph59%29.80 "Hg2 mi
12:10 PM86 °FBroken clouds.5 mph59%29.83 "Hg2 mi
Weather by CustomWeather, © 2014

See weather overviewHow to use our weather pages